Weather Roundup
Issued by NWS Chicago, IL

Home | Current Version | Previous Version | Text Only | Print | Product List | Glossary Off
Versions: 1 2 3 4 5 6 7 8 9 10 11 12 13 14 15 16 17 18 19 20 21 22 23 24 25 26 27 28 29 30 31 32 33 34 35 36 37 38 39 40 41 42 43 44 45 46 47 48 49 50

000
NZUS59 KLOT 211506
HRRLOT

CHICAGO AREA WEATHER ROUNDUP
NATIONAL WEATHER SERVICE CHICAGO/ROMEOVILLE IL
1000 AM CDT SUN SEP 21 2014

NOTE: "FAIR" INDICATES FEW OR NO CLOUDS BELOW 12,000 FEET WITH NO
SIGNIFICANT WEATHER AND/OR OBSTRUCTIONS TO VISIBILITY.

* THESE STATIONS ARE NOT UNDER NWS QUALITY CONTROL. THEY ALSO MAY NOT
  REPORT WEATHER SUCH AS PRECIPITATION OR FOG.

ILZ005-006-012>014-019>023-211600-
NORTHEAST ILLINOIS

CITY           SKY/WX    TMP DP  RH WIND       PRES   REMARKS
OHARE          CLOUDY    61  50  67 NW16G24   29.85R
MIDWAY         PTSUNNY   62  51  67 NW16G26   29.84R
AURORA         PTSUNNY   61  50  67 NW20G29   29.88R
LANSING*       PTSUNNY   62  51  66 NW17G25   29.85R
JOLIET*        PTSUNNY   61  49  64 NW8G21    29.88R
WAUKEGAN       CLOUDY    57  50  77 NW15G28   29.83R
DUPAGE AIRPORT CLOUDY    59  50  72 NW16G26   29.87R
WHEELING       CLOUDY    60  50  69 NW13      29.86R
KANKAKEE*      PTSUNNY   63  52  67 W14G21    29.89R
MORRIS*        PTSUNNY   63  52  68 NW15G24   29.89R
LEWIS AIRPORT* PTSUNNY   61  50  66 NW16G26   29.87S
NORTHERLY IS     N/A     62  49  62 W15         N/A
$$

WIZ051-052-058>065-066-070>072-211600-
SOUTHEAST WISCONSIN

CITY           SKY/WX    TMP DP  RH WIND       PRES   REMARKS
MILWAUKEE      PTSUNNY   59  51  75 NW17G23   29.82R
KENOSHA*       CLOUDY    57  52  83 NW14G25   29.83R
RACINE*        PTSUNNY   59  52  77 NW18G26   29.84R
BURLINGTON     CLOUDY    54  52  92 NW16G22   29.86R
WEST BEND      RAIN      54  52  94 NW10G20   29.84R
$$

INZ001>003-010>013-019-020-211600-
NORTHWEST INDIANA

CITY           SKY/WX    TMP DP  RH WIND       PRES   REMARKS
GARY*          PTSUNNY   64  50  59 W17G29    29.84R
MICHIGAN CITY* NOT AVBL
RENSSELAER*    NOT AVBL
VALPARAISO     PTSUNNY   62  50  64 W16G30    29.84R
$$

LMZ740>746-211600-
SOUTHERN LAKE MICHIGAN

STATION/POSITION TIME  SKY/WX   TEMP WIND        PRES    VSBY
                                AIR  DIR/SP/G
                 (UTC)          (F)  (DEG/KT/KT) (MB)    (MI)
HARRISON CRIB    1500            60  300/ 21/ 28   N/A
BURNHAM HARBOR   1500            61  280/ 12/ 19   N/A
CALUMET HARBOR   1500            62  280/ 10/ 18 1009.2R
BURNS HARBOR     NOT AVBL
MICHIGAN CITY    1500            60  270/ 27/ 31   N/A
$$

ABBREVIATIONS USED IN REMARKS
   TC - TEMPERATURE IN CELSIUS
  WCI - WIND CHILL INDEX
   HX - HEAT INDEX
  VSB - VISIBILITY
$$


USA.gov is the U.S. government's official web portal to all federal, state and local government web resources and services.